Hourly Data Report for September 01, 2017

All times are specified in Local Standard Time (LST). Add 1 hour to adjust for Daylight Saving Time where and when it is observed.

MISCOU ISLAND (AUT)
NEW BRUNSWICK

48°00'32.002" N
64°29'39.008" W
4.00 m
8103050
71719
WMI

Download Data

Hourly Data (September 2017)
Hourly Data Report for September 1, 2017
Temp Definition
°C
Dew Point Temp Definition
°C
Rel Hum Definition
%
Wind Dir Definition
10's deg

Wind Spd Definition
km/h
Visibility Definition
km
Stn Press Definition
kPa
Hmdx Definition


Wind Chill Definition


Weather Definition


TIME
00:00 10.2 7.4 82 27 24   100.11     LegendNANA
01:00 9.5 6.3 80 27 28   100.14     LegendNANA
02:00 9.0 5.3 78 27 25   100.16     LegendNANA
03:00 8.5 4.6 76 27 28   100.17     LegendNANA
04:00 8.4 4.3 75 28 27   100.20     LegendNANA
05:00 8.6 4.6 76 27 26   100.22     LegendNANA
06:00 8.6 4.6 76 27 23   100.27     LegendNANA
07:00 9.6 4.7 71 27 24   100.30     LegendNANA
08:00 10.5 4.8 68 27 25   100.26     LegendNANA
09:00 11.5 5.8 68 26 27   100.27     LegendNANA
10:00 11.8 5.3 64 26 25   100.34     LegendNANA
11:00 12.3 5.1 62 27 22   100.35     LegendNANA
12:00 13.3 4.7 56 27 24   100.33     LegendNANA
13:00 13.9 5.1 55 27 20   100.36     LegendNANA
14:00 13.9 5.0 55 26 18   100.36     LegendNANA
15:00 14.3 4.3 51 25 21   100.36     LegendNANA
16:00 14.1 4.9 54 26 21   100.38     LegendNANA
17:00 13.7 5.9 59 25 20   100.40     LegendNANA
18:00 12.3 7.0 70 26 22   100.47     LegendNANA
19:00 12.8 8.7 76 33 31   100.54     LegendNANA
20:00 12.6 8.6 77 34 37   100.65     LegendNANA
21:00 11.9 8.8 81 32 34   100.72     LegendNANA
22:00 11.6 8.4 80 33 38   100.75     LegendNANA
23:00 11.1 8.1 82 33 37   100.81     LegendNANA

Notes on Data Quality.

Legend

  • E = Estimated
  • M = Missing
  • NA = Not Available
  • ‡ = Partner data that is not subject to review by the National Climate Archives
Date modified: